User: anonymous   Login
Location: Unspecified
(0.0000°N, 0.0000°E)
Time: 06:57:56
(UTC+00:00)
Language:

RASAT - Orbit

View from above orbital plane
View from above orbital plane
View from above satellite
View from above satellite

Ground track
Ground track

The orbit data is extracted from the following two-line orbital elements,

1 37791U 11044D   17202.76766179 +.00000023 +00000-0 +13353-4 0  9992
2 37791 098.1359 294.2877 0022422 015.7046 344.4854 14.64610558316831
Epoch (UTC): 21 July 2017 18:25:25
Eccentricity: 0.0022422
inclination: 98.1359°
perigee height: 662 km
apogee height: 694 km
right ascension of ascending node: 294.2877°
argument of perigee: 15.7046°
revolutions per day: 14.64610558
mean anomaly at epoch: 344.4854°
orbit number at epoch: 31683

The dashed part of the orbit path shows where the satellite is in the earth's shadow,  

DLR